New Kenley Weather Station. Now works across all platform including Mobile Phones. Bug reports please use the "Contact Us" link.

Kenley Weather Cam  Kenley Weather Cam


Rain radar more information rain snow radar



Select another period ( hide this area )

Units Period Custom range Directly to
Metric English Both
Daily Weekly Monthly Yearly
use both date-selectors for a custom range
previous Day
With this date

WeatherUnderground graphs for this period ( click here )


Daily Summary for Monday Aug 19 2019
Time Temp. ( °C ) Dew pt. ( °C ) Wind ( km/h ) from Gust ( km/h ) Pressure ( hPa ) Humid.( % ) Rainrate ( cm )
High18,0 13,3 0,0 ( 0/0 ) 38,6 1002,3 85 -
Average14,1 11,2 0,0 Calm #64/64 14,8 1000,3 83 -
Low12,8 10,3 -   0,0 998,2 72 -
Daily Tabular details for Monday Aug 19 2019
Time Temp. ( °C ) Dew pt. ( °C ) Wind ( km/h ) from Gust ( km/h ) Pressure ( hPa ) Humid.( % ) Rainrate ( cm )
00:02 13,9 11,2   Calm 12,9 998,2 84 -
00:12 13,8 11,1   Calm 14,5 999,2 84 -
00:22 13,7 11,0   Calm 14,5 999,2 84 -
00:33 13,7 11,0   Calm   999,2 84 -
00:43 13,5 10,8   Calm   999,2 84 -
00:54 13,4 10,8   Calm   999,2 84 -
01:04 13,3 10,8   Calm 11,3 999,2 84 -
01:15 13,3 10,8   Calm   999,2 85 -
01:25 13,3 10,8   Calm 11,3 999,2 85 -
01:36 13,2 10,7   Calm   999,2 85 -
01:46 13,2 10,7   Calm 24,1 999,2 85 -
01:56 13,2 10,7   Calm 11,3 999,2 85 -
02:07 13,2 10,7   Calm 19,3 999,2 85 -
02:17 13,2 10,7   Calm 12,9 999,2 85 -
02:28 13,2 10,7   Calm 17,7 999,2 85 -
02:38 13,2 10,7   Calm 17,7 999,2 85 -
02:49 13,2 10,7   Calm 14,5 999,2 85 -
02:59 13,2 10,7   Calm 17,7 999,2 85 -
03:09 13,2 10,7   Calm 12,9 999,2 85 -
03:20 13,1 10,6   Calm 11,3 999,2 85 -
03:30 13,0 10,5   Calm   999,2 85 -
03:40 13,0 10,5   Calm 17,7 999,2 85 -
03:51 12,9 10,4   Calm 17,7 999,2 85 -
04:01 12,9 10,4   Calm 17,7 999,2 85 -
04:12 12,9 10,4   Calm 17,7 1000,2 85 -
04:22 12,9 10,4   Calm 17,7 1000,2 85 -
04:32 12,9 10,4   Calm 19,3 1000,2 85 -
04:43 12,9 10,4   Calm 19,3 1000,2 85 -
04:53 12,8 10,3   Calm 17,7 1000,2 85 -
05:04 12,9 10,4   Calm 17,7 1000,2 85 -
05:14 12,9 10,4   Calm 17,7 1000,2 85 -
05:25 12,8 10,3   Calm 12,9 1000,2 85 -
05:35 12,8 10,3   Calm 11,3 1000,2 85 -
05:46 12,8 10,3   Calm 20,9 1000,2 85 -
05:57 12,8 10,3   Calm 19,3 1000,2 85 -
06:07 12,8 10,3   Calm 14,5 1000,2 85 -
06:17 12,9 10,4   Calm   1000,2 85 -
06:27 12,9 10,4   Calm   1000,2 85 -
06:37 13,0 10,5   Calm 14,5 1000,2 85 -
06:48 13,1 10,6   Calm 14,5 1000,2 85 -
06:58 13,3 10,8   Calm 14,5 1000,2 85 -
07:09 13,4 10,9   Calm 14,5 1001,2 85 -
07:19 13,5 11,0   Calm 38,6 1001,2 85 -
07:29 13,7 11,2   Calm 38,6 1001,2 85 -
07:40 13,8 11,3   Calm 11,3 1001,2 85 -
07:51 14,2 11,7   Calm 17,7 1001,2 85 -
08:01 14,5 11,8   Calm 17,7 1001,2 84 -
08:11 14,6 11,9   Calm 19,3 1001,2 84 -
08:21 14,7 12,2   Calm 19,3 1001,2 85 -
08:31 14,9 12,2   Calm 14,5 1001,2 84 -
08:42 15,1 12,4   Calm 12,9 1001,2 84 -
08:52 15,3 12,6   Calm 14,5 1001,2 84 -
09:02 15,5 12,6   Calm 17,7 1001,2 83 -
09:12 15,9 13,0   Calm 17,7 1001,2 83 -
09:23 16,4 13,1   Calm 17,7 1001,2 81 -
09:33 16,6 13,1   Calm 14,5 1001,2 80 -
09:44 16,8 13,2   Calm 14,5 1002,3 79 -
09:54 17,1 13,2   Calm 17,7 1002,3 78 -
10:04 17,5 13,1   Calm 24,1 1002,3 75 -
10:15 18,0 13,3   Calm 17,7 1002,3 74 -
10:25 18,0 12,9   Calm 19,3 1002,3 72 -
10:35 17,8 13,1   Calm   1002,3 74 -
10:45 17,5 12,6   Calm 14,5 1002,3 73 -
10:55 17,6 12,7   Calm 24,1 1002,3 73 -
Daily Summary for Monday Aug 19 2019
Time Temp. ( °C ) Dew pt. ( °C ) Wind ( km/h ) from Gust ( km/h ) Pressure ( hPa ) Humid.( % ) Rainrate ( cm )
High18,0 13,3 0,0 ( 0/0 ) 38,6 1002,3 85 -
Average14,1 11,2 0,0 Calm #64/64 14,8 1000,3 83 -
Low12,8 10,3 -   0,0 998,2 72 -
Daily Tabular details for Monday Aug 19 2019
Time Temp. ( °C ) Dew pt. ( °C ) Wind ( km/h ) from Gust ( km/h ) Pressure ( hPa ) Humid.( % ) Rainrate ( cm )
00:02 13,9 11,2   Calm 12,9 998,2 84 -
00:12 13,8 11,1   Calm 14,5 999,2 84 -
00:22 13,7 11,0   Calm 14,5 999,2 84 -
00:33 13,7 11,0   Calm   999,2 84 -
00:43 13,5 10,8   Calm   999,2 84 -
00:54 13,4 10,8   Calm   999,2 84 -
01:04 13,3 10,8   Calm 11,3 999,2 84 -
01:15 13,3 10,8   Calm   999,2 85 -
01:25 13,3 10,8   Calm 11,3 999,2 85 -
01:36 13,2 10,7   Calm   999,2 85 -
01:46 13,2 10,7   Calm 24,1 999,2 85 -
01:56 13,2 10,7   Calm 11,3 999,2 85 -
02:07 13,2 10,7   Calm 19,3 999,2 85 -
02:17 13,2 10,7   Calm 12,9 999,2 85 -
02:28 13,2 10,7   Calm 17,7 999,2 85 -
02:38 13,2 10,7   Calm 17,7 999,2 85 -
02:49 13,2 10,7   Calm 14,5 999,2 85 -
02:59 13,2 10,7   Calm 17,7 999,2 85 -
03:09 13,2 10,7   Calm 12,9 999,2 85 -
03:20 13,1 10,6   Calm 11,3 999,2 85 -
03:30 13,0 10,5   Calm   999,2 85 -
03:40 13,0 10,5   Calm 17,7 999,2 85 -
03:51 12,9 10,4   Calm 17,7 999,2 85 -
04:01 12,9 10,4   Calm 17,7 999,2 85 -
04:12 12,9 10,4   Calm 17,7 1000,2 85 -
04:22 12,9 10,4   Calm 17,7 1000,2 85 -
04:32 12,9 10,4   Calm 19,3 1000,2 85 -
04:43 12,9 10,4   Calm 19,3 1000,2 85 -
04:53 12,8 10,3   Calm 17,7 1000,2 85 -
05:04 12,9 10,4   Calm 17,7 1000,2 85 -
05:14 12,9 10,4   Calm 17,7 1000,2 85 -
05:25 12,8 10,3   Calm 12,9 1000,2 85 -
05:35 12,8 10,3   Calm 11,3 1000,2 85 -
05:46 12,8 10,3   Calm 20,9 1000,2 85 -
05:57 12,8 10,3   Calm 19,3 1000,2 85 -
06:07 12,8 10,3   Calm 14,5 1000,2 85 -
06:17 12,9 10,4   Calm   1000,2 85 -
06:27 12,9 10,4   Calm   1000,2 85 -
06:37 13,0 10,5   Calm 14,5 1000,2 85 -
06:48 13,1 10,6   Calm 14,5 1000,2 85 -
06:58 13,3 10,8   Calm 14,5 1000,2 85 -
07:09 13,4 10,9   Calm 14,5 1001,2 85 -
07:19 13,5 11,0   Calm 38,6 1001,2 85 -
07:29 13,7 11,2   Calm 38,6 1001,2 85 -
07:40 13,8 11,3   Calm 11,3 1001,2 85 -
07:51 14,2 11,7   Calm 17,7 1001,2 85 -
08:01 14,5 11,8   Calm 17,7 1001,2 84 -
08:11 14,6 11,9   Calm 19,3 1001,2 84 -
08:21 14,7 12,2   Calm 19,3 1001,2 85 -
08:31 14,9 12,2   Calm 14,5 1001,2 84 -
08:42 15,1 12,4   Calm 12,9 1001,2 84 -
08:52 15,3 12,6   Calm 14,5 1001,2 84 -
09:02 15,5 12,6   Calm 17,7 1001,2 83 -
09:12 15,9 13,0   Calm 17,7 1001,2 83 -
09:23 16,4 13,1   Calm 17,7 1001,2 81 -
09:33 16,6 13,1   Calm 14,5 1001,2 80 -
09:44 16,8 13,2   Calm 14,5 1002,3 79 -
09:54 17,1 13,2   Calm 17,7 1002,3 78 -
10:04 17,5 13,1   Calm 24,1 1002,3 75 -
10:15 18,0 13,3   Calm 17,7 1002,3 74 -
10:25 18,0 12,9   Calm 19,3 1002,3 72 -
10:35 17,8 13,1   Calm   1002,3 74 -
10:45 17,5 12,6   Calm 14,5 1002,3 73 -
10:55 17,6 12,7   Calm 24,1 1002,3 73 -

Download your copy of this data-set  here

Our weather-data as stored at Weather Underground. Script developed by Jim McMurry. Adapted for the template by Leuven-Template.eu

You find our weather info also at:

Weather Underground

Equipment we use:

Weather-station
Oregon WMR928

Weather-server
ALIX_1D

Provider
Meteohub

Oregon WMR928

ALIX_1D

Meteohub



Kenley Weather Cam Time Lapse

Original Kenley Weather needs Flash

Main Web Site

Outdoor Temp 1 and 2

Kenley Radiation

Graphs/Charts